NI4CE-10 Weather Reports


time (UTC)temp
F
wind
direction
speed
knots
gust
knots
rain 1hr
in
rain 24hr
in
rain mn
in
humidity
%
barometer
mb
20260901024305 78 70 0.0 0.0 0.00 1.10 1.10 100 1018.7
20260901023805 79 70 0.0 0.0 0.00 1.10 1.10 100 1018.7
20260901023305 79 70 0.0 0.0 0.00 1.10 1.10 100 1018.7
20260901022805 79 70 0.0 0.0 0.00 1.10 1.10 100 1018.8
20260901022306 79 70 0.0 0.0 0.00 1.10 1.10 100 1018.8
20260901021805 79 70 0.0 0.0 0.00 1.10 1.10 100 1018.8
20260901021305 79 70 0.0 0.0 0.00 1.10 1.10 100 1018.7
20260901020805 79 70 0.0 0.0 0.00 1.10 1.10 100 1018.6
20260901020305 79 70 0.0 0.0 0.00 1.10 1.10 100 1018.5
20260901020128 79 70 0.0 0.0 0.00 1.10 1.10 100 1018.4
20260901015805 79 70 0.0 0.0 0.00 1.10 1.10 100 1018.4
20260901015306 79 70 0.0 0.0 0.00 1.10 1.10 100 1018.5
20260901014805 79 70 0.0 0.0 0.00 1.10 1.10 100 1018.4
20260901014601 79 70 0.0 0.0 0.00 1.10 1.10 100 1018.5
20260901014305 79 70 0.0 0.0 0.00 1.10 1.10 100 1018.5
20260901013805 79 70 0.0 0.0 0.01 1.10 1.10 100 1018.4
20260901013305 79 70 0.0 0.0 0.01 1.10 1.10 100 1018.4
20260901012805 79 70 0.0 0.0 0.01 1.10 1.10 100 1018.4
20260901012306 79 70 0.0 0.0 0.01 1.10 1.10 100 1018.4
20260901011805 79 70 0.0 0.0 0.01 1.10 1.10 100 1018.5
20260901011305 79 70 0.0 0.0 0.02 1.10 1.10 100 1018.5
20260901010805 79 70 0.0 0.0 0.03 1.10 1.10 100 1018.3
20260901010305 79 70 0.0 0.0 0.04 1.10 1.10 100 1018.3
20260901005805 79 70 0.0 0.0 0.04 1.10 1.10 100 1018.3
20260901005307 79 70 0.0 0.0 0.04 1.10 1.10 100 1018.2
20260901004805 79 70 0.0 0.0 0.04 1.10 1.10 100 1018.2
20260901004305 79 70 0.0 0.0 0.04 1.10 1.10 100 1018.2
20260901003805 79 70 0.0 0.0 0.03 1.09 1.09 100 1018.0
20260901003305 79 70 0.0 0.0 0.03 1.09 1.09 100 1017.9
20260901002805 80 70 0.0 0.0 0.03 1.09 1.09 100 1018.1
20260901002306 80 70 0.0 0.0 0.03 1.09 1.09 100 1017.8
20260901001806 80 70 0.0 0.0 0.03 1.09 1.09 100 1017.9
20260901001306 80 70 0.0 0.0 0.02 1.08 1.08 100 1017.9
20260901000805 80 70 0.0 0.0 0.01 1.07 1.07 100 1018.0
20260901000306 80 70 0.0 0.0 0.00 1.06 1.06 100 1018.1
20260901000155 80 70 0.0 0.0 0.00 1.06 1.06 100 1018.0
20260831235806 80 70 0.0 0.0 0.00 1.06 1.06 100 1018.0
20260831235306 80 70 0.0 0.0 0.00 1.06 1.06 100 1017.9
20260831234806 80 70 0.0 0.0 0.01 1.06 1.06 100 1017.8
20260831234306 80 70 0.0 0.0 0.01 1.06 1.06 100 1017.9
20260831233806 80 70 0.0 0.0 0.01 1.06 1.06 100 1017.9
20260831233306 80 70 0.0 0.0 0.01 1.06 1.06 100 1018.0
20260831233203 80 70 0.0 0.0 0.02 1.06 1.06 100 1018.2
20260831232806 80 70 0.0 0.0 0.02 1.06 1.06 100 1018.2
20260831232306 80 70 0.0 0.0 0.03 1.06 1.06 100 1018.3
20260831231806 80 70 0.0 0.0 0.06 1.06 1.06 100 1018.3
20260831231306 80 70 0.0 0.0 0.13 1.06 1.06 100 1018.3
20260831230806 80 70 0.0 0.0 0.22 1.06 1.06 100 1018.3
20260831230306 80 70 0.0 0.0 0.28 1.07 1.06 100 1018.4
20260831225806 80 70 0.0 0.0 0.40 1.07 1.06 100 1018.5
20260831225306 80 70 0.0 0.0 0.55 1.07 1.06 100 1018.5
20260831224806 80 70 0.0 3.5 0.67 1.06 1.05 100 1018.4
20260831224306 79 35 0.0 3.5 0.78 1.06 1.05 100 1018.4
20260831223806 79 87 0.0 4.3 0.93 1.06 1.05 100 1018.3
20260831223306 79 88 3.5 5.2 1.05 1.06 1.05 100 1018.3
20260831222806 79 84 3.5 5.2 1.04 1.05 1.04 100 1018.1
20260831222306 79 56 0.0 6.1 1.03 1.04 1.03 100 1018.0
20260831221806 78 82 3.5 10.4 1.00 1.01 1.00 100 1017.8
20260831221306 78 102 7.0 7.0 0.93 0.94 0.93 100 1018.0
20260831220806 78 88 2.6 9.6 0.84 0.85 0.84 100 1018.0
20260831220306 77 101 9.6 12.2 0.78 0.79 0.78 100 1017.9
20260831215806 77 102 5.2 9.6 0.66 0.67 0.66 100 1017.9
20260831215306 77 74 7.8 13.0 0.51 0.52 0.51 100 1018.0
20260831214806 78 133 6.1 13.0 0.38 0.39 0.38 100 1018.0
20260831214306 79 59 5.2 13.0 0.27 0.28 0.27 100 1018.0
20260831213806 80 88 8.7 8.7 0.12 0.13 0.12 100 1018.0
20260831213306 81 82 7.8 9.6 0.00 0.01 0.00 100 1017.7
20260831212806 80 68 7.8 15.6 0.00 0.01 0.00 100 1017.7
20260831212307 85 57 10.4 13.9 0.00 0.01 0.00 100 1017.6
20260831211806 87 64 5.2 11.3 0.00 0.01 0.00 100 1017.5
20260831211306 90 101 1.7 4.3 0.00 0.01 0.00 100 1017.1
20260831210806 91 16 3.5 9.6 0.00 0.01 0.00 100 1017.0
20260831210306 91 326 3.5 9.6 0.00 0.05 0.00 100 1016.8
20260831205806 92 291 3.5 11.3 0.00 0.05 0.00 100 1016.8
20260831205306 92 317 3.5 9.6 0.00 0.05 0.00 100 1016.7
20260831204806 92 265 6.1 8.7 0.00 0.05 0.00 100 1016.9
20260831204306 92 341 5.2 11.3 0.00 0.05 0.00 100 1016.9
20260831203806 92 310 7.8 13.9 0.00 0.05 0.00 100 1016.8
20260831203307 92 299 4.3 7.8 0.00 0.05 0.00 100 1016.7
20260831202807 91 270 5.2 11.3 0.00 0.05 0.00 100 1016.8
20260831202306 91 307 6.1 10.4 0.00 0.05 0.00 100 1016.9
20260831201807 91 313 0.9 7.0 0.00 0.05 0.00 100 1016.9
20260831201307 91 331 4.3 7.0 0.00 0.05 0.00 100 1016.8
20260831200807 91 345 5.2 7.0 0.00 0.05 0.00 100 1016.9
20260831200631 91 9 1.7 5.2 0.00 0.34 0.00 100 1016.8
20260831200307 91 9 1.7 5.2 0.00 0.34 0.00 100 1016.8
20260831195807 92 358 2.6 4.3 0.00 0.34 0.00 100 1016.8
20260831195307 92 16 0.0 2.6 0.00 0.34 0.00 100 1016.8
20260831194807 93 1 1.7 3.5 0.00 0.34 0.00 100 1016.8
20260831194307 93 47 0.9 3.5 0.00 0.34 0.00 100 1016.8
20260831193807 94 305 0.0 3.5 0.00 0.34 0.00 100 1016.8
20260831193307 95 260 0.0 1.7 0.00 0.34 0.00 100 1016.8
20260831192807 95 234 1.7 5.2 0.00 0.34 0.00 100 1016.8
20260831192307 94 275 2.6 5.2 0.00 0.34 0.00 100 1016.9
20260831191807 93 153 2.6 5.2 0.00 0.34 0.00 100 1017.0
20260831191307 93 189 2.6 4.3 0.00 0.34 0.00 100 1016.9
20260831190807 92 206 3.5 7.0 0.00 0.34 0.00 100 1016.9
20260831190307 93 106 2.6 3.5 0.00 0.88 0.00 100 1017.0
20260831185807 93 18 0.0 4.3 0.00 0.88 0.00 100 1017.0
20260831185307 94 250 2.6 4.3 0.00 0.88 0.00 100 1017.1
20260831184807 95 187 3.5 6.1 0.00 0.88 0.00 100 1017.2
20260831184307 96 201 2.6 4.3 0.00 0.88 0.00 100 1017.2
20260831183807 95 210 1.7 4.3 0.00 0.88 0.00 100 1017.4
20260831183307 95 234 2.6 3.5 0.00 0.88 0.00 100 1017.5
20260831182807 96 222 3.5 5.2 0.00 0.88 0.00 100 1017.6
20260831182307 101 271 2.6 5.2 0.00 0.88 0.00 100 1017.7
20260831181807 100 11 0.0 0.9 0.00 0.88 0.00 100 1017.8
20260831181307 97 147 0.9 2.6 0.00 0.88 0.00 100 1017.9
20260831180807 97 106 2.6 3.5 0.00 0.88 0.00 100 1017.9
20260831180307 105 60 3.5 7.0 0.00 0.88 0.00 100 1017.9
20260831175807 117 206 0.0 2.6 0.00 0.88 0.00 100 1017.9
20260831175307 110 57 0.9 7.0 0.00 0.88 0.00 100 1018.0
20260831174807 107 232 0.9 6.1 0.00 0.88 0.00 100 1018.0
20260831174307 115 106 1.7 7.8 0.00 0.88 0.00 100 1018.1
20260831173807 115 219 7.0 7.8 0.00 0.88 0.00 100 1018.1
20260831173307 113 225 5.2 7.0 0.00 0.88 0.00 100 1018.2
20260831172807 111 194 6.1 6.1 0.00 0.88 0.00 100 1018.2
20260831172307 108 171 3.5 7.0 0.00 0.88 0.00 100 1018.2
20260831171807 113 243 0.0 6.1 0.00 0.88 0.00 100 1018.3
20260831171307 113 163 4.3 7.0 0.00 0.88 0.00 100 1018.4
20260831170807 115 182 3.5 7.0 0.00 0.88 0.00 100 1018.5
20260831170308 112 153 3.5 5.2 0.00 0.88 0.00 100 1018.6
20260831165807 103 147 2.6 4.3 0.00 0.88 0.00 100 1018.8
20260831165307 98 52 2.6 5.2 0.00 0.88 0.00 100 1018.8
20260831164807 111 189 4.3 5.2 0.00 0.88 0.00 100 1018.8
20260831164307 93 54 1.7 4.3 0.00 0.88 0.00 100 1018.9
20260831163808 93 168 0.0 4.3 0.00 0.88 0.00 100 1019.0
20260831163307 95 181 2.6 7.0 0.00 0.88 0.00 100 1018.9
20260831163207 109 184 1.7 5.2 0.00 0.88 0.00 100 1019.0
20260831162808 109 184 1.7 5.2 0.00 0.88 0.00 100 1019.0
20260831162308 102 99 1.7 5.2 0.00 0.88 0.00 100 1019.0
20260831161808 112 172 4.3 6.1 0.00 0.88 0.00 100 1019.1
20260831161309 98 147 3.5 6.1 0.00 0.88 0.00 100 1019.2
20260831160808 98 147 3.5 6.1 0.00 0.88 0.00 100 1019.2
20260831160308 94 153 0.9 3.5 0.00 0.88 0.00 100 1019.2
20260831155808 93 26 0.0 5.2 0.00 0.88 0.00 100 1019.3
20260831155308 93 77 4.3 4.3 0.00 0.88 0.00 100 1019.3
20260831154808 98 129 0.9 3.5 0.00 0.88 0.00 100 1019.3
20260831154308 106 33 1.7 4.3 0.00 0.88 0.00 100 1019.3
20260831153808 96 97 1.7 6.1 0.00 0.88 0.00 100 1019.2
20260831153308 96 120 3.5 6.1 0.00 0.88 0.00 100 1019.3
20260831152808 103 80 1.7 7.0 0.00 0.88 0.00 100 1019.2
20260831152308 97 88 5.2 6.1 0.00 0.88 0.00 100 1019.1
20260831151808 97 73 2.6 5.2 0.00 0.88 0.00 100 1019.2
20260831151632 95 78 3.5 3.5 0.00 0.88 0.00 100 1019.2
20260831151308 95 78 3.5 3.5 0.00 0.88 0.00 100 1019.2
20260831150808 94 95 1.7 6.1 0.00 0.88 0.00 100 1019.1
20260831150308 93 39 0.9 5.2 0.00 0.88 0.00 100 1019.1
20260831145808 95 106 1.7 7.0 0.00 0.88 0.00 100 1019.1
20260831145308 93 52 2.6 3.5 0.00 0.88 0.00 100 1019.0
20260831144808 92 101 3.5 7.8 0.00 0.88 0.00 100 1019.0
20260831144308 94 130 5.2 6.1 0.00 0.88 0.00 100 1019.1
20260831143808 94 112 4.3 7.8 0.00 0.88 0.00 100 1019.1
20260831143308 94 111 2.6 7.0 0.00 0.88 0.00 100 1019.0
20260831142808 97 118 3.5 5.2 0.00 0.88 0.00 100 1019.0
20260831142308 98 129 3.5 5.2 0.00 0.88 0.00 100 1018.9
20260831141808 99 14 3.5 5.2 0.00 0.88 0.00 100 1018.9
20260831141631 94 47 1.7 5.2 0.00 0.88 0.00 100 1019.0
20260831141308 94 47 1.7 5.2 0.00 0.88 0.00 100 1019.0
20260831140808 99 78 2.6 5.2 0.00 0.88 0.00 100 1019.1
20260831140308 91 91 2.6 6.1 0.00 0.88 0.00 100 1019.1
20260831135808 97 108 1.7 4.3 0.00 0.88 0.00 100 1019.0
20260831135308 99 71 4.3 4.3 0.00 0.88 0.00 100 1019.0
20260831134808 98 52 0.9 4.3 0.00 0.88 0.00 100 1019.0
20260831134308 95 71 1.7 4.3 0.00 0.88 0.00 100 1019.0
20260831133808 95 42 2.6 5.2 0.00 0.88 0.00 100 1018.9
20260831133308 94 60 0.9 2.6 0.00 0.88 0.00 100 1018.8
20260831132808 93 57 1.7 3.5 0.00 0.88 0.00 100 1018.8
20260831132308 93 68 1.7 4.3 0.00 0.88 0.00 100 1018.8
20260831131808 92 33 0.9 2.6 0.00 0.88 0.00 100 1018.8
20260831131308 92 12 0.0 2.6 0.00 0.88 0.00 100 1018.7
20260831131022 92 40 0.0 2.6 0.00 0.88 0.00 100 1018.6
20260831130808 92 40 0.0 2.6 0.00 0.88 0.00 100 1018.6
20260831130308 90 42 2.6 3.5 0.00 0.88 0.00 100 1018.6
20260831125808 88 75 0.9 3.5 0.00 0.88 0.00 100 1018.6
20260831125308 88 82 0.0 3.5 0.00 0.88 0.00 100 1018.6
20260831124808 86 75 2.6 3.5 0.00 0.88 0.00 100 1018.6
20260831124308 83 33 0.0 0.0 0.00 0.88 0.00 100 1018.6
20260831123809 79 33 0.0 0.0 0.00 0.88 0.00 100 1018.5
20260831123308 78 33 0.0 0.0 0.00 0.88 0.00 100 1018.5
20260831122808 78 33 0.0 2.6 0.00 0.88 0.00 100 1018.3
20260831122309 78 37 1.7 1.7 0.00 0.88 0.00 100 1018.4
20260831121809 77 53 0.0 0.0 0.00 0.88 0.00 100 1018.3
20260831121309 76 53 0.0 2.6 0.00 0.88 0.00 100 1018.2
20260831120809 76 73 0.0 0.0 0.00 0.88 0.00 100 1018.1
20260831120309 76 73 0.0 0.0 0.00 0.88 0.00 100 1018.0
20260831115809 75 73 0.0 0.9 0.00 0.88 0.00 100 1018.0
20260831115309 75 60 0.0 0.0 0.00 0.88 0.00 100 1017.9
20260831114809 75 60 0.0 0.0 0.00 0.88 0.00 100 1017.8
20260831114309 75 60 0.0 0.0 0.00 0.88 0.00 100 1017.8
20260831113809 74 60 0.0 2.6 0.00 0.88 0.00 100 1017.7
20260831113309 74 64 0.0 0.0 0.00 0.88 0.00 100 1017.7
20260831112809 74 64 0.0 2.6 0.00 0.88 0.00 100 1017.7
20260831112309 73 54 2.6 2.6 0.00 0.88 0.00 100 1017.5
20260831111809 73 56 0.0 0.0 0.00 0.88 0.00 100 1017.4
20260831111309 73 56 0.0 0.0 0.00 0.88 0.00 100 1017.3
20260831110809 73 56 0.0 0.0 0.00 0.88 0.00 100 1017.2
20260831110309 73 56 0.0 0.0 0.00 0.88 0.00 100 1017.2
20260831110025 73 56 0.0 0.0 0.00 0.88 0.00 100 1017.0
20260831105809 73 56 0.0 0.0 0.00 0.88 0.00 100 1017.0
20260831105309 73 56 0.0 0.0 0.00 0.88 0.00 100 1016.9
20260831104809 73 56 0.0 0.0 0.00 0.88 0.00 100 1017.0
20260831104309 73 56 0.0 0.0 0.00 0.88 0.00 100 1017.0
20260831103809 73 56 0.0 0.0 0.00 0.88 0.00 100 1016.9
20260831103309 73 56 0.0 0.0 0.00 0.88 0.00 100 1017.0
20260831102809 73 56 0.0 0.0 0.00 0.88 0.00 100 1016.9
20260831102309 73 56 0.0 0.0 0.00 0.88 0.00 100 1016.9
20260831101809 73 56 0.0 0.0 0.00 0.88 0.00 100 1017.0
20260831101309 73 56 0.0 0.0 0.00 0.88 0.00 100 1017.0
20260831100809 73 56 0.0 0.0 0.00 0.88 0.00 100 1017.0
20260831100309 73 56 0.0 0.0 0.00 0.88 0.00 100 1017.0
20260831095809 73 56 0.0 0.0 0.00 0.88 0.00 100 1017.1
20260831095309 73 56 0.0 0.0 0.00 0.88 0.00 100 1017.1
20260831094809 73 56 0.0 0.0 0.00 0.88 0.00 100 1017.0
20260831094628 73 56 0.0 0.0 0.00 0.88 0.00 100 1016.9
20260831094309 73 56 0.0 0.0 0.00 0.88 0.00 100 1016.9
20260831093810 74 56 0.0 0.0 0.00 0.88 0.00 100 1016.9
20260831093309 73 56 0.0 0.0 0.00 0.88 0.00 100 1016.9
20260831092810 74 56 0.0 0.0 0.00 0.88 0.00 100 1016.9
20260831092309 74 56 0.0 0.0 0.00 0.88 0.00 100 1016.9
20260831091809 74 56 0.0 0.0 0.00 0.88 0.00 100 1016.9
20260831091309 74 56 0.0 0.0 0.00 0.88 0.00 100 1016.9
20260831091215 74 56 0.0 0.0 0.00 0.88 0.00 100 1016.9
20260831090809 74 56 0.0 0.0 0.00 0.88 0.00 100 1016.9
20260831090309 74 56 0.0 0.0 0.00 0.88 0.00 100 1016.9
20260831090145 74 56 0.0 0.0 0.00 0.88 0.00 100 1017.0
20260831085809 74 56 0.0 0.0 0.00 0.88 0.00 100 1017.0
20260831085309 74 56 0.0 0.0 0.00 0.88 0.00 100 1017.0
20260831085138 74 56 0.0 0.0 0.00 0.88 0.00 100 1017.1
20260831084810 74 56 0.0 0.0 0.00 0.88 0.00 100 1017.1
20260831084512 74 56 0.0 0.0 0.00 0.88 0.00 100 1017.0
20260831084309 74 56 0.0 0.0 0.00 0.88 0.00 100 1017.0
20260831083811 74 56 0.0 0.0 0.00 0.88 0.00 100 1017.1
20260831083310 74 56 0.0 0.0 0.00 0.88 0.00 100 1017.1
20260831083040 74 56 0.0 0.0 0.00 0.88 0.00 100 1017.0
20260831082911 74 56 0.0 0.0 0.00 0.88 0.00 100 1017.0
20260831082810 74 56 0.0 0.0 0.00 0.88 0.00 100 1017.0
20260831082530 74 56 0.0 0.0 0.00 0.88 0.00 100 1017.0
20260831082458 74 56 0.0 0.0 0.00 0.88 0.00 100 1017.0
20260831082310 74 56 0.0 0.0 0.00 0.88 0.00 100 1017.0
20260831081810 74 56 0.0 0.0 0.00 0.88 0.00 100 1017.0
20260831081515 74 56 0.0 0.0 0.00 0.88 0.00 100 1017.0
20260831081310 74 56 0.0 0.0 0.00 0.88 0.00 100 1017.0
20260831080810 74 56 0.0 0.0 0.00 0.88 0.00 100 1017.1
20260831080310 74 56 0.0 0.0 0.00 0.88 0.00 100 1017.1
20260831075810 74 56 0.0 0.0 0.00 0.88 0.00 100 1017.1
20260831075310 74 56 0.0 0.0 0.00 0.88 0.00 100 1017.0
20260831074810 74 56 0.0 0.0 0.00 0.88 0.00 100 1017.1
20260831074310 74 56 0.0 0.0 0.00 0.88 0.00 100 1017.1
20260831074035 74 56 0.0 0.0 0.00 0.88 0.00 100 1017.1
20260831073810 74 56 0.0 0.0 0.00 0.88 0.00 100 1017.1
20260831073534 74 56 0.0 0.0 0.00 0.88 0.00 100 1017.1
20260831073310 74 56 0.0 0.0 0.00 0.88 0.00 100 1017.1
20260831073019 74 56 0.0 0.0 0.00 0.88 0.00 100 1017.2
20260831072810 74 56 0.0 0.0 0.00 0.88 0.00 100 1017.2
20260831072310 74 56 0.0 0.0 0.00 0.88 0.00 100 1017.2
20260831072038 74 56 0.0 0.0 0.00 0.88 0.00 100 1017.4
20260831071810 74 56 0.0 0.0 0.00 0.88 0.00 100 1017.4
20260831071310 74 56 0.0 0.0 0.00 0.88 0.00 100 1017.3
20260831070810 75 56 0.0 0.0 0.00 0.88 0.00 100 1017.3
20260831070310 75 56 0.0 0.0 0.00 0.88 0.00 100 1017.4
20260831065810 74 56 0.0 0.0 0.00 0.88 0.00 100 1017.3
20260831065310 74 56 0.0 0.0 0.00 0.88 0.00 100 1017.4
20260831064941 74 56 0.0 0.0 0.00 0.88 0.00 100 1017.5
20260831064810 74 56 0.0 0.0 0.00 0.88 0.00 100 1017.6
20260831064310 74 56 0.0 0.0 0.00 0.88 0.00 100 1017.5
20260831063810 74 56 0.0 0.0 0.00 0.88 0.00 100 1017.5
20260831063310 74 56 0.0 0.0 0.00 0.88 0.00 100 1017.5
20260831062933 74 56 0.0 0.0 0.00 0.88 0.00 100 1017.5
20260831062810 74 56 0.0 0.0 0.00 0.88 0.00 100 1017.5
20260831062310 74 56 0.0 0.0 0.00 0.88 0.00 100 1017.6
20260831061810 74 56 0.0 0.0 0.00 0.88 0.00 100 1017.7
20260831061310 74 56 0.0 0.0 0.00 0.88 0.00 100 1017.6
20260831060810 75 56 0.0 0.0 0.00 0.88 0.00 100 1017.7
20260831060310 75 56 0.0 0.0 0.00 0.88 0.00 100 1017.7
20260831055810 75 56 0.0 0.0 0.00 0.88 0.00 100 1017.7
20260831055310 75 56 0.0 0.0 0.00 0.88 0.00 100 1017.7
20260831054810 75 56 0.0 0.0 0.00 0.88 0.00 100 1017.7
20260831054310 75 56 0.0 0.0 0.00 0.88 0.00 100 1017.7
20260831053810 75 56 0.0 0.0 0.00 0.88 0.00 100 1017.6
20260831053311 75 56 0.0 0.0 0.00 0.88 0.00 100 1017.7
20260831052810 75 56 0.0 0.0 0.00 0.88 0.00 100 1017.7
20260831052310 75 56 0.0 0.0 0.00 0.88 0.00 100 1017.8
20260831051810 75 56 0.0 0.0 0.00 0.88 0.00 100 1017.9
20260831051310 75 56 0.0 0.0 0.00 0.88 0.00 100 1018.0
20260831050810 75 56 0.0 0.0 0.00 0.88 0.00 100 1018.1
20260831050310 75 56 0.0 0.0 0.00 0.88 0.00 100 1018.1
20260831045810 75 56 0.0 0.0 0.00 0.88 0.00 100 1018.2
20260831045310 75 56 0.0 0.0 0.00 0.88 0.88 100 1018.2
20260831044810 75 56 0.0 4.3 0.00 0.88 0.88 100 1018.2
20260831044310 75 88 0.0 4.3 0.00 0.88 0.88 100 1018.2
20260831043810 75 82 0.0 4.3 0.00 0.88 0.88 100 1018.2
20260831043311 75 85 0.9 3.5 0.00 0.88 0.88 100 1018.2
20260831042811 75 84 0.0 0.0 0.00 0.88 0.88 100 1018.3
20260831042311 75 84 0.0 0.0 0.00 0.88 0.88 100 1018.4
20260831041811 75 84 0.0 0.0 0.00 0.88 0.88 100 1018.5
20260831041311 75 84 0.0 0.0 0.00 0.88 0.88 100 1018.5
20260831040811 75 84 0.0 0.0 0.00 0.88 0.88 100 1018.6
20260831040311 75 84 0.0 0.0 0.00 0.88 0.88 100 1018.6
20260831035811 75 75 0.0 0.0 0.00 0.88 0.88 100 1018.6
20260831035311 75 75 0.0 2.6 0.00 0.88 0.88 100 1018.6
20260831034811 75 42 0.0 0.9 0.00 0.88 0.88 100 1018.6
20260831034311 75 50 0.0 5.2 0.00 0.88 0.88 100 1018.6
20260831033811 75 74 0.9 5.2 0.00 0.88 0.88 100 1018.6
20260831033311 75 85 0.0 5.2 0.00 0.88 0.88 100 1018.6
20260831032811 75 36 0.0 0.0 0.00 0.88 0.88 100 1018.6
20260831032311 75 36 0.0 0.0 0.00 0.88 0.88 100 1018.7
20260831031811 75 36 0.0 0.0 0.00 0.88 0.88 100 1018.6
20260831031311 75 36 0.0 3.5 0.00 0.88 0.88 100 1018.6
20260831030952 75 78 2.6 2.6 0.00 0.88 0.88 100 1018.6
20260831030811 75 78 2.6 2.6 0.00 0.88 0.88 100 1018.6
20260831030311 75 16 0.0 0.0 0.00 0.88 0.88 100 1018.6
20260831025811 75 16 0.0 0.0 0.00 0.88 0.88 100 1018.6
20260831025311 75 16 0.0 4.3 0.00 0.88 0.88 100 1018.6
20260831024811 75 32 3.5 3.5 0.00 0.88 0.88 100 1018.5